Visibility
13.6 14.2 15.0 15.0 15.0 9.1 14.8 15.0 14.7 4.8 0.6 0.1 0.0 5.8 1.2 10.6 2.9 15.0 1.6 15.0 15.0 15.0 15.0 15.0 15.0 15.0 15.0 15.0 15.0 15.0 15.0 15.0 15.0 15.0 15.0 15.0 15.0 15.0
14.2 15.0 15.0 15.0 15.0 14.4 12.3 15.0 5.6 9.3 13.1 1.3 0.1 0.1 13.4 9.1 15.0 15.0 15.0 15.0 15.0 15.0 15.0 15.0 15.0 15.0 15.0 15.0 15.0 15.0 15.0 15.0 15.0 15.0 15.0 15.0 15.0 15.0
15.0 15.0 15.0 15.0 15.0 13.9 12.8 3.3 9.8 4.9 4.1 0.1 0.1 0.1 0.1 0.1 2.3 15.0 15.0 15.0 15.0 15.0 15.0 15.0 15.0 15.0 4.0 12.8 15.0 15.0 15.0 15.0 15.0 15.0 15.0 15.0 15.0 15.0
15.0 15.0 2.2 15.0 15.0 14.0 11.4 2.3 2.9 3.9 3.5 0.0 0.0 0.1 0.1 4.7 4.3 15.0 15.0 15.0 15.0 15.0 15.0 15.0 15.0 15.0 15.0 3.9 7.2 15.0 15.0 15.0 15.0 15.0 15.0 15.0 15.0 15.0
15.0 5.0 9.4 15.0 1.4 12.5 7.5 7.8 5.3 3.9 4.1 0.2 0.1 0.2 0.1 0.3 0.2 12.6 14.5 15.0 15.0 13.7 15.0 15.0 15.0 11.7 12.2 6.3 8.1 15.0 15.0 15.0 15.0 15.0 15.0 15.0 15.0 15.0
15.0 15.0 15.0 15.0 15.0 15.0 15.0 11.2 5.2 2.1 5.9 9.7 0.2 0.1 0.1 0.2 1.5 0.1 0.1 1.8 0.2 12.3 9.1 6.5 5.7 10.5 9.9 15.0 15.0 15.0 15.0 12.7 7.2 15.0 15.0 15.0 15.0 15.0
15.0 15.0 15.0 15.0 0.6 4.5 10.2 14.6 5.6 4.2 3.4 0.6 0.1 0.1 0.0 0.1 0.0 7.1 3.5 0.7 0.7 1.3 1.0 0.3 1.2 1.5 5.1 10.4 15.0 14.9 6.6 8.5 15.0 15.0 15.0 15.0 15.0 15.0
15.0 14.8 14.9 0.1 0.1 0.0 0.0 0.1 2.9 10.0 10.6 5.7 0.3 0.1 0.0 0.1 13.6 2.3 0.8 2.9 1.0 1.3 1.5 0.6 2.3 3.7 15.0 15.0 15.0 9.9 2.0 12.8 15.0 15.0 15.0 15.0 15.0 15.0
15.0 0.4 0.1 0.1 0.1 0.0 0.0 0.0 0.1 10.0 13.9 13.4 8.2 6.1 0.2 3.5 7.7 1.2 1.4 0.8 0.6 0.9 0.5 0.4 1.9 15.0 9.2 9.1 4.9 2.7 3.4 15.0 15.0 15.0 15.0 15.0 15.0 15.0
0.0 0.0 0.0 0.0 0.0 0.0 0.0 0.0 0.0 0.0 2.9 4.4 11.9 6.4 12.7 6.1 4.2 7.0 4.1 0.5 0.3 0.3 1.0 1.1 9.8 11.6 6.7 6.4 8.7 3.0 8.4 15.0 15.0 15.0 15.0 15.0 15.0 15.0
0.0 0.0 0.0 0.0 0.1 0.0 0.0 0.0 0.1 0.1 0.2 2.1 2.9 4.3 5.1 3.4 3.1 2.2 0.3 0.4 0.4 0.5 0.7 0.8 1.3 2.2 1.4 3.0 3.0 10.8 15.0 15.0 15.0 15.0 15.0 15.0 15.0 15.0
0.1 0.1 0.1 0.0 0.1 0.1 0.0 0.1 0.1 0.1 0.1 0.1 0.1 0.1 0.6 0.4 3.9 3.6 3.7 2.7 0.7 0.4 1.2 2.4 0.6 0.2 0.1 1.9 7.4 15.0 15.0 15.0 15.0 15.0 15.0 15.0 15.0 15.0
0.1 0.1 0.1 5.7 6.3 15.0 3.1 0.1 1.1 3.1 1.8 4.2 0.4 0.3 0.7 0.6 0.4 1.5 3.2 1.0 0.7 0.6 2.3 0.9 0.1 0.1 8.3 15.0 15.0 15.0 15.0 15.0 15.0 15.0 15.0 15.0 15.0 15.0
0.1 0.1 0.4 15.0 15.0 15.0 15.0 12.7 6.4 2.9 9.0 1.3 0.3 0.4 0.5 0.4 0.3 0.3 0.3 0.5 0.6 1.0 0.5 0.3 0.2 2.4 15.0 15.0 15.0 15.0 15.0 15.0 15.0 15.0 15.0 15.0 15.0 15.0
8.8 6.6 9.7 15.0 15.0 14.9 9.3 12.5 5.8 1.0 0.7 0.5 0.3 0.3 0.2 0.3 0.4 0.4 0.4 0.6 0.2 0.1 0.7 0.9 14.4 15.0 15.0 15.0 15.0 15.0 15.0 15.0 15.0 15.0 15.0 15.0 15.0 15.0
2.7 3.3 7.3 7.7 7.2 3.0 4.6 9.7 15.0 4.3 0.9 0.6 0.3 0.3 0.4 0.5 0.7 0.7 0.5 0.6 0.7 0.9 1.3 6.5 15.0 15.0 15.0 15.0 15.0 15.0 15.0 15.0 15.0 15.0 15.0 15.0 15.0 15.0
5.1 5.0 5.0 6.5 3.0 2.9 2.8 4.8 13.4 5.9 1.7 0.6 0.5 0.9 1.7 4.4 3.3 1.2 1.4 1.2 3.5 2.7 13.4 11.2 15.0 15.0 15.0 15.0 15.0 15.0 15.0 15.0 15.0 15.0 9.6 7.4 15.0 15.0
3.0 4.6 2.1 3.4 3.0 2.2 1.8 1.1 4.2 2.8 6.5 11.5 15.0 15.0 15.0 15.0 15.0 15.0 13.7 13.3 15.0 15.0 15.0 15.0 15.0 15.0 15.0 15.0 15.0 15.0 15.0 15.0 15.0 15.0 9.1 4.5 10.1 15.0
0.8 2.8 1.4 1.3 0.9 1.3 1.3 4.2 3.2 15.0 15.0 15.0 15.0 15.0 15.0 14.5 15.0 15.0 15.0 15.0 15.0 15.0 15.0 15.0 15.0 15.0 15.0 15.0 15.0 15.0 15.0 15.0 9.2 4.7 5.0 4.9 4.5 15.0
0.5 0.3 0.3 0.6 0.7 1.0 0.6 0.7 2.8 13.6 15.0 14.3 15.0 15.0 10.7 4.3 5.2 6.8 5.9 13.8 15.0 15.0 15.0 15.0 15.0 15.0 15.0 15.0 15.0 15.0 15.0 7.6 4.1 4.1 4.2 5.3 15.0 15.0
0.2 0.3 0.2 0.2 0.2 0.4 0.2 0.3 0.5 0.2 0.2 0.1 0.3 2.2 1.9 1.9 1.6 3.7 14.9 15.0 15.0 15.0 15.0 15.0 15.0 15.0 15.0 15.0 15.0 15.0 15.0 15.0 15.0 9.6 8.6 1.8 0.2 6.6
0.1 0.1 0.1 0.1 0.1 0.1 0.1 0.1 0.1 0.1 0.2 0.7 0.8 1.1 2.6 8.9 15.0 15.0 15.0 15.0 11.8 15.0 15.0 15.0 15.0 15.0 15.0 15.0 4.1 7.5 14.5 15.0 15.0 15.0 15.0 14.5 10.5 4.3
0.1 0.1 0.1 0.1 0.1 0.1 0.1 0.1 0.3 0.9 0.8 0.8 1.0 1.7 4.3 14.8 15.0 15.0 15.0 15.0 15.0 15.0 15.0 15.0 15.0 15.0 15.0 15.0 11.2 4.4 14.7 8.0 5.8 14.9 15.0 15.0 15.0 15.0